{"data":{"norad_id":57777,"intl_designator":"2023-134G","name":"STARLINK-30355","alt_names":[],"object_type":"PAYLOAD","status":"ACTIVE","operator":null,"country":"US","launch_date":"2023-09-04","launch_site_code":"AFETR","launch_vehicle":null,"mission":null,"orbit_class":"UNKNOWN","rcs_meters":null,"size_class":null,"mass_kg":null,"dimensions":null,"purposes":["comms"],"wikipedia_slug":null,"has_3d_model":false,"image_url":null,"decayed_at":null,"tle_current":{"epoch":"2026-09-20T11:07:20.835840Z","epoch_age_seconds":134450,"freshness":"FRESH","line1":"1 57777U 23134G   26263.46343560 -.00000217  00000+0  16081-5 0  9997","line2":"2 57777  42.9990 178.0011 0000539 270.2817  89.7973 15.27577181169249","mean_motion":15.27577181,"eccentricity":5.39e-5,"inclination_deg":42.999,"raan_deg":178.0011,"arg_perigee_deg":270.2817,"mean_anomaly_deg":89.7973,"bstar":1.6081e-6,"rev_number":16924,"period_min":94.266922674069,"perigee_km":482.68771876721,"apogee_km":483.42735553832,"semimajor_km":6861.1945371528,"source":"CELESTRAK","updated_at":"2026-09-21T09:00:33.684703Z"}}}